owner,sensor,date,latitude,longitude,vertical_datum,sea_water_practical_salinity,qcFlag 
NERRS,ioos:station:NOAA.NERRS:marscwq:1,2014-08-01T00:30:00Z,27.8383,-97.0503,5.09,37.1,1111122 
NERRS,ioos:station:NOAA.NERRS:marscwq:1,2014-08-01T03:30:00Z,27.8383,-97.0503,5.07,37.0,1111122 
NERRS,ioos:station:NOAA.NERRS:marscwq:1,2014-08-01T04:30:00Z,27.8383,-97.0503,5.06,37.0,1111122 
NERRS,ioos:station:NOAA.NERRS:marscwq:1,2014-08-01T05:30:00Z,27.8383,-97.0503,5.04,37.0,1111122 
NERRS,ioos:station:NOAA.NERRS:marscwq:1,2014-08-01T08:30:00Z,27.8383,-97.0503,5.11,37.1,1111122 
NERRS,ioos:station:NOAA.NERRS:marscwq:1,2014-08-01T09:30:00Z,27.8383,-97.0503,5.15,37.4,1111122 
NERRS,ioos:station:NOAA.NERRS:marscwq:1,2014-08-01T11:30:00Z,27.8383,-97.0503,5.2,37.2,1111122 
NERRS,ioos:station:NOAA.NERRS:marscwq:1,2014-08-01T12:30:00Z,27.8383,-97.0503,5.17,37.2,1111122 
NERRS,ioos:station:NOAA.NERRS:marscwq:1,2014-08-01T13:30:00Z,27.8383,-97.0503,5.16,37.1,1111122 
NERRS,ioos:station:NOAA.NERRS:marscwq:1,2014-08-01T16:30:00Z,27.8383,-97.0503,5.08,37.0,1111122 
NERRS,ioos:station:NOAA.NERRS:marscwq:1,2014-08-01T18:30:00Z,27.8383,-97.0503,5.04,37.1,1111122 
NERRS,ioos:station:NOAA.NERRS:marscwq:1,2014-08-01T19:30:00Z,27.8383,-97.0503,5.04,37.1,1111122 
NERRS,ioos:station:NOAA.NERRS:marscwq:1,2014-08-01T20:30:00Z,27.8383,-97.0503,5.02,37.1,1111122 
NERRS,ioos:station:NOAA.NERRS:marscwq:1,2014-08-01T23:00:00Z,27.8383,-97.0503,5.09,37.3,1111122 
NERRS,ioos:station:NOAA.NERRS:marscwq:1,2014-08-01T23:30:00Z,27.8383,-97.0503,5.09,37.4,1111122 
NERRS,ioos:station:NOAA.NERRS:marscwq:1,2014-08-02T00:30:00Z,27.8383,-97.0503,5.11,37.3,1111122 
NERRS,ioos:station:NOAA.NERRS:marscwq:1,2014-08-02T01:30:00Z,27.8383,-97.0503,5.08,37.2,1111122 
NERRS,ioos:station:NOAA.NERRS:marscwq:1,2014-08-02T03:00:00Z,27.8383,-97.0503,5.11,37.2,1111122 
NERRS,ioos:station:NOAA.NERRS:marscwq:1,2014-08-02T05:00:00Z,27.8383,-97.0503,5.16,37.2,1111122 
NERRS,ioos:station:NOAA.NERRS:marscwq:1,2014-08-02T05:30:00Z,27.8383,-97.0503,5.12,37.1,1111122 
NERRS,ioos:station:NOAA.NERRS:marscwq:1,2014-08-02T08:30:00Z,27.8383,-97.0503,5.1,37.1,1111122 
NERRS,ioos:station:NOAA.NERRS:marscwq:1,2014-08-02T10:30:00Z,27.8383,-97.0503,5.2,37.0,1111122 
NERRS,ioos:station:NOAA.NERRS:marscwq:1,2014-08-02T12:00:00Z,27.8383,-97.0503,5.16,36.8,1111122 
NERRS,ioos:station:NOAA.NERRS:marscwq:1,2014-08-02T12:30:00Z,27.8383,-97.0503,5.2,36.9,1111122 
NERRS,ioos:station:NOAA.NERRS:marscwq:1,2014-08-02T13:30:00Z,27.8383,-97.0503,5.35,36.8,1111122 
NERRS,ioos:station:NOAA.NERRS:marscwq:1,2014-08-02T14:30:00Z,27.8383,-97.0503,5.17,37.0,1111122 
NERRS,ioos:station:NOAA.NERRS:marscwq:1,2014-08-02T15:30:00Z,27.8383,-97.0503,5.14,36.9,1111122 
NERRS,ioos:station:NOAA.NERRS:marscwq:1,2014-08-02T16:30:00Z,27.8383,-97.0503,5.1,36.9,1111122 
NERRS,ioos:station:NOAA.NERRS:marscwq:1,2014-08-02T17:30:00Z,27.8383,-97.0503,5.09,36.8,1111122 
NERRS,ioos:station:NOAA.NERRS:marscwq:1,2014-08-02T18:30:00Z,27.8383,-97.0503,5.07,36.8,1111122 
NERRS,ioos:station:NOAA.NERRS:marscwq:1,2014-08-02T19:30:00Z,27.8383,-97.0503,5.07,36.8,1111122 
NERRS,ioos:station:NOAA.NERRS:marscwq:1,2014-08-02T20:30:00Z,27.8383,-97.0503,5.05,36.9,1111122 
NERRS,ioos:station:NOAA.NERRS:marscwq:1,2014-08-02T21:30:00Z,27.8383,-97.0503,5.04,36.8,1111122 
NERRS,ioos:station:NOAA.NERRS:marscwq:1,2014-08-02T22:30:00Z,27.8383,-97.0503,5.08,37.0,1111122 
NERRS,ioos:station:NOAA.NERRS:marscwq:1,2014-08-02T23:30:00Z,27.8383,-97.0503,5.11,37.3,1111122 
NERRS,ioos:station:NOAA.NERRS:marscwq:1,2014-08-03T00:30:00Z,27.8383,-97.0503,5.15,37.4,1111122 
NERRS,ioos:station:NOAA.NERRS:marscwq:1,2014-08-03T01:30:00Z,27.8383,-97.0503,5.15,37.5,1111122 
NERRS,ioos:station:NOAA.NERRS:marscwq:1,2014-08-03T02:30:00Z,27.8383,-97.0503,5.17,37.0,1111122 
NERRS,ioos:station:NOAA.NERRS:marscwq:1,2014-08-03T03:30:00Z,27.8383,-97.0503,5.18,36.9,1111122 
NERRS,ioos:station:NOAA.NERRS:marscwq:1,2014-08-03T04:30:00Z,27.8383,-97.0503,5.19,36.8,1111122 
NERRS,ioos:station:NOAA.NERRS:marscwq:1,2014-08-03T05:30:00Z,27.8383,-97.0503,5.2,36.8,1111122 
NERRS,ioos:station:NOAA.NERRS:marscwq:1,2014-08-03T07:00:00Z,27.8383,-97.0503,5.19,36.7,1111122 
NERRS,ioos:station:NOAA.NERRS:marscwq:1,2014-08-03T08:30:00Z,27.8383,-97.0503,5.17,36.7,1111122 
NERRS,ioos:station:NOAA.NERRS:marscwq:1,2014-08-03T11:30:00Z,27.8383,-97.0503,5.2,36.6,1111122 
NERRS,ioos:station:NOAA.NERRS:marscwq:1,2014-08-03T12:30:00Z,27.8383,-97.0503,5.25,36.6,1111122 
NERRS,ioos:station:NOAA.NERRS:marscwq:1,2014-08-03T15:30:00Z,27.8383,-97.0503,5.17,36.6,1111122 
NERRS,ioos:station:NOAA.NERRS:marscwq:1,2014-08-03T16:30:00Z,27.8383,-97.0503,5.07,36.7,1111122 
NERRS,ioos:station:NOAA.NERRS:marscwq:1,2014-08-03T18:00:00Z,27.8383,-97.0503,5.01,36.7,1111122 
NERRS,ioos:station:NOAA.NERRS:marscwq:1,2014-08-03T18:30:00Z,27.8383,-97.0503,5.01,36.9,1111122 
NERRS,ioos:station:NOAA.NERRS:marscwq:1,2014-08-03T19:30:00Z,27.8383,-97.0503,4.97,37.1,1111122 
NERRS,ioos:station:NOAA.NERRS:marscwq:1,2014-08-03T20:30:00Z,27.8383,-97.0503,4.96,37.5,1111122 
NERRS,ioos:station:NOAA.NERRS:marscwq:1,2014-08-03T21:30:00Z,27.8383,-97.0503,4.99,37.8,1111122 
NERRS,ioos:station:NOAA.NERRS:marscwq:1,2014-08-03T22:30:00Z,27.8383,-97.0503,4.98,38.0,1111122 
NERRS,ioos:station:NOAA.NERRS:marscwq:1,2014-08-03T23:30:00Z,27.8383,-97.0503,5.03,37.9,1111122 
NERRS,ioos:station:NOAA.NERRS:marscwq:1,2014-08-04T00:30:00Z,27.8383,-97.0503,5.05,38.3,1111122 
NERRS,ioos:station:NOAA.NERRS:marscwq:1,2014-08-04T02:00:00Z,27.8383,-97.0503,5.17,38.0,1111122 
NERRS,ioos:station:NOAA.NERRS:marscwq:1,2014-08-04T04:30:00Z,27.8383,-97.0503,5.19,37.0,1111122 
NERRS,ioos:station:NOAA.NERRS:marscwq:1,2014-08-04T05:30:00Z,27.8383,-97.0503,5.19,36.9,1111122 
NERRS,ioos:station:NOAA.NERRS:marscwq:1,2014-08-04T07:00:00Z,27.8383,-97.0503,5.19,36.9,1111122 
NERRS,ioos:station:NOAA.NERRS:marscwq:1,2014-08-04T08:30:00Z,27.8383,-97.0503,5.21,36.9,1111122 
NERRS,ioos:station:NOAA.NERRS:marscwq:1,2014-08-04T09:30:00Z,27.8383,-97.0503,5.22,36.9,1111122 
NERRS,ioos:station:NOAA.NERRS:marscwq:1,2014-08-04T10:30:00Z,27.8383,-97.0503,5.24,36.9,1111122 
NERRS,ioos:station:NOAA.NERRS:marscwq:1,2014-08-04T11:30:00Z,27.8383,-97.0503,5.22,36.9,1111122 
NERRS,ioos:station:NOAA.NERRS:marscwq:1,2014-08-04T12:30:00Z,27.8383,-97.0503,5.32,37.0,1111122 
NERRS,ioos:station:NOAA.NERRS:marscwq:1,2014-08-04T13:30:00Z,27.8383,-97.0503,5.21,37.0,1111122 
NERRS,ioos:station:NOAA.NERRS:marscwq:1,2014-08-04T15:00:00Z,27.8383,-97.0503,5.21,37.0,1111122 
NERRS,ioos:station:NOAA.NERRS:marscwq:1,2014-08-04T15:30:00Z,27.8383,-97.0503,5.18,37.0,1111122 
NERRS,ioos:station:NOAA.NERRS:marscwq:1,2014-08-04T16:30:00Z,27.8383,-97.0503,5.15,37.0,1111122 
NERRS,ioos:station:NOAA.NERRS:marscwq:1,2014-08-04T17:30:00Z,27.8383,-97.0503,5.11,37.0,1111122 
NERRS,ioos:station:NOAA.NERRS:marscwq:1,2014-08-04T19:30:00Z,27.8383,-97.0503,5.01,37.0,1111122 
NERRS,ioos:station:NOAA.NERRS:marscwq:1,2014-08-04T20:30:00Z,27.8383,-97.0503,4.91,37.0,1111122 
NERRS,ioos:station:NOAA.NERRS:marscwq:1,2014-08-04T21:30:00Z,27.8383,-97.0503,4.92,37.2,1111122 
NERRS,ioos:station:NOAA.NERRS:marscwq:1,2014-08-04T23:30:00Z,27.8383,-97.0503,5.01,37.5,1111122 
NERRS,ioos:station:NOAA.NERRS:marscwq:1,2014-08-05T00:30:00Z,27.8383,-97.0503,5.05,37.6,1111122 
NERRS,ioos:station:NOAA.NERRS:marscwq:1,2014-08-05T03:30:00Z,27.8383,-97.0503,5.22,37.3,1111122 
NERRS,ioos:station:NOAA.NERRS:marscwq:1,2014-08-05T05:30:00Z,27.8383,-97.0503,5.29,37.1,1111122 
NERRS,ioos:station:NOAA.NERRS:marscwq:1,2014-08-05T07:00:00Z,27.8383,-97.0503,5.27,37.0,1111122 
NERRS,ioos:station:NOAA.NERRS:marscwq:1,2014-08-05T07:30:00Z,27.8383,-97.0503,5.25,37.0,1111122 
NERRS,ioos:station:NOAA.NERRS:marscwq:1,2014-08-05T08:30:00Z,27.8383,-97.0503,5.26,37.0,1111122 
NERRS,ioos:station:NOAA.NERRS:marscwq:1,2014-08-05T09:30:00Z,27.8383,-97.0503,5.26,37.0,1111122 
NERRS,ioos:station:NOAA.NERRS:marscwq:1,2014-08-05T10:30:00Z,27.8383,-97.0503,5.3,37.0,1111122 
NERRS,ioos:station:NOAA.NERRS:marscwq:1,2014-08-05T11:30:00Z,27.8383,-97.0503,5.28,37.0,1111122 
NERRS,ioos:station:NOAA.NERRS:marscwq:1,2014-08-05T13:00:00Z,27.8383,-97.0503,5.32,37.0,1111122 
NERRS,ioos:station:NOAA.NERRS:marscwq:1,2014-08-05T13:30:00Z,27.8383,-97.0503,5.31,37.0,1111122 
NERRS,ioos:station:NOAA.NERRS:marscwq:1,2014-08-05T14:30:00Z,27.8383,-97.0503,5.31,37.0,1111122 
NERRS,ioos:station:NOAA.NERRS:marscwq:1,2014-08-05T15:30:00Z,27.8383,-97.0503,5.28,37.0,1111122 
NERRS,ioos:station:NOAA.NERRS:marscwq:1,2014-08-05T16:30:00Z,27.8383,-97.0503,5.23,37.0,1111122 
NERRS,ioos:station:NOAA.NERRS:marscwq:1,2014-08-05T17:30:00Z,27.8383,-97.0503,5.18,37.0,1111122 
NERRS,ioos:station:NOAA.NERRS:marscwq:1,2014-08-05T18:30:00Z,27.8383,-97.0503,5.1,37.0,1111122 
NERRS,ioos:station:NOAA.NERRS:marscwq:1,2014-08-05T19:30:00Z,27.8383,-97.0503,5.0,37.0,1111122 
NERRS,ioos:station:NOAA.NERRS:marscwq:1,2014-08-05T20:30:00Z,27.8383,-97.0503,4.98,37.0,1111122 
NERRS,ioos:station:NOAA.NERRS:marscwq:1,2014-08-05T21:30:00Z,27.8383,-97.0503,4.96,37.2,1111122 
NERRS,ioos:station:NOAA.NERRS:marscwq:1,2014-08-05T23:30:00Z,27.8383,-97.0503,4.93,37.7,1111122 
NERRS,ioos:station:NOAA.NERRS:marscwq:1,2014-08-06T00:30:00Z,27.8383,-97.0503,5.03,37.9,1111122 
NERRS,ioos:station:NOAA.NERRS:marscwq:1,2014-08-06T01:30:00Z,27.8383,-97.0503,5.04,37.8,1111122 
NERRS,ioos:station:NOAA.NERRS:marscwq:1,2014-08-06T02:30:00Z,27.8383,-97.0503,5.14,38.0,1111122 
NERRS,ioos:station:NOAA.NERRS:marscwq:1,2014-08-06T04:00:00Z,27.8383,-97.0503,5.26,37.9,1111122 
NERRS,ioos:station:NOAA.NERRS:marscwq:1,2014-08-06T04:30:00Z,27.8383,-97.0503,5.25,38.3,1111122 
NERRS,ioos:station:NOAA.NERRS:marscwq:1,2014-08-06T05:30:00Z,27.8383,-97.0503,5.28,37.5,1111122 
NERRS,ioos:station:NOAA.NERRS:marscwq:1,2014-08-06T07:00:00Z,27.8383,-97.0503,5.29,37.0,1111122 
NERRS,ioos:station:NOAA.NERRS:marscwq:1,2014-08-06T07:30:00Z,27.8383,-97.0503,5.28,37.0,1111122 
NERRS,ioos:station:NOAA.NERRS:marscwq:1,2014-08-06T08:30:00Z,27.8383,-97.0503,5.27,37.0,1111122 
NERRS,ioos:station:NOAA.NERRS:marscwq:1,2014-08-06T10:30:00Z,27.8383,-97.0503,5.29,37.0,1111122 
NERRS,ioos:station:NOAA.NERRS:marscwq:1,2014-08-06T11:30:00Z,27.8383,-97.0503,5.32,37.0,1111122 
NERRS,ioos:station:NOAA.NERRS:marscwq:1,2014-08-06T12:30:00Z,27.8383,-97.0503,5.28,37.0,1111122 
NERRS,ioos:station:NOAA.NERRS:marscwq:1,2014-08-06T13:30:00Z,27.8383,-97.0503,5.29,37.0,1111122 
NERRS,ioos:station:NOAA.NERRS:marscwq:1,2014-08-06T14:30:00Z,27.8383,-97.0503,5.27,37.0,1111122 
NERRS,ioos:station:NOAA.NERRS:marscwq:1,2014-08-06T15:30:00Z,27.8383,-97.0503,5.31,37.0,1111122 
NERRS,ioos:station:NOAA.NERRS:marscwq:1,2014-08-06T16:30:00Z,27.8383,-97.0503,5.28,37.0,1111122 
NERRS,ioos:station:NOAA.NERRS:marscwq:1,2014-08-06T17:30:00Z,27.8383,-97.0503,5.19,37.0,1111122 
NERRS,ioos:station:NOAA.NERRS:marscwq:1,2014-08-06T18:30:00Z,27.8383,-97.0503,5.2,37.0,1111122 
NERRS,ioos:station:NOAA.NERRS:marscwq:1,2014-08-06T20:30:00Z,27.8383,-97.0503,4.99,37.1,1111122 
NERRS,ioos:station:NOAA.NERRS:marscwq:1,2014-08-06T21:30:00Z,27.8383,-97.0503,4.91,37.1,1111122 
NERRS,ioos:station:NOAA.NERRS:marscwq:1,2014-08-06T23:00:00Z,27.8383,-97.0503,4.87,37.3,1111122 
NERRS,ioos:station:NOAA.NERRS:marscwq:1,2014-08-07T00:30:00Z,27.8383,-97.0503,4.89,37.9,1111122 
NERRS,ioos:station:NOAA.NERRS:marscwq:1,2014-08-07T01:30:00Z,27.8383,-97.0503,4.97,38.1,1111122 
NERRS,ioos:station:NOAA.NERRS:marscwq:1,2014-08-07T02:30:00Z,27.8383,-97.0503,5.07,38.0,1111122 
NERRS,ioos:station:NOAA.NERRS:marscwq:1,2014-08-07T03:30:00Z,27.8383,-97.0503,5.17,38.4,1111122 
NERRS,ioos:station:NOAA.NERRS:marscwq:1,2014-08-07T05:00:00Z,27.8383,-97.0503,5.26,38.4,1111122 
NERRS,ioos:station:NOAA.NERRS:marscwq:1,2014-08-07T07:30:00Z,27.8383,-97.0503,5.31,37.3,1111122 
NERRS,ioos:station:NOAA.NERRS:marscwq:1,2014-08-07T08:30:00Z,27.8383,-97.0503,5.29,37.2,1111122 
NERRS,ioos:station:NOAA.NERRS:marscwq:1,2014-08-07T09:30:00Z,27.8383,-97.0503,5.3,37.1,1111122 
NERRS,ioos:station:NOAA.NERRS:marscwq:1,2014-08-07T12:00:00Z,27.8383,-97.0503,5.3,37.1,1111122 
NERRS,ioos:station:NOAA.NERRS:marscwq:1,2014-08-07T12:30:00Z,27.8383,-97.0503,5.29,37.1,1111122 
NERRS,ioos:station:NOAA.NERRS:marscwq:1,2014-08-07T13:30:00Z,27.8383,-97.0503,5.29,37.1,1111122 
NERRS,ioos:station:NOAA.NERRS:marscwq:1,2014-08-07T14:30:00Z,27.8383,-97.0503,5.3,37.1,1111122 
NERRS,ioos:station:NOAA.NERRS:marscwq:1,2014-08-07T15:30:00Z,27.8383,-97.0503,5.29,37.1,1111122 
NERRS,ioos:station:NOAA.NERRS:marscwq:1,2014-08-07T16:30:00Z,27.8383,-97.0503,5.27,37.1,1111122 
NERRS,ioos:station:NOAA.NERRS:marscwq:1,2014-08-07T18:30:00Z,27.8383,-97.0503,5.16,37.1,1111122 
NERRS,ioos:station:NOAA.NERRS:marscwq:1,2014-08-07T19:30:00Z,27.8383,-97.0503,5.06,37.1,1111122 
NERRS,ioos:station:NOAA.NERRS:marscwq:1,2014-08-07T20:30:00Z,27.8383,-97.0503,4.95,37.1,1111122 
NERRS,ioos:station:NOAA.NERRS:marscwq:1,2014-08-07T21:30:00Z,27.8383,-97.0503,4.87,37.1,1111122 
NERRS,ioos:station:NOAA.NERRS:marscwq:1,2014-08-08T00:30:00Z,27.8383,-97.0503,4.79,37.9,1111122 
NERRS,ioos:station:NOAA.NERRS:marscwq:1,2014-08-08T01:30:00Z,27.8383,-97.0503,4.83,38.2,1111122 
NERRS,ioos:station:NOAA.NERRS:marscwq:1,2014-08-08T03:30:00Z,27.8383,-97.0503,5.07,38.2,1111122 
NERRS,ioos:station:NOAA.NERRS:marscwq:1,2014-08-08T04:30:00Z,27.8383,-97.0503,5.15,38.5,1111122 
NERRS,ioos:station:NOAA.NERRS:marscwq:1,2014-08-08T08:30:00Z,27.8383,-97.0503,5.29,37.4,1111122 
NERRS,ioos:station:NOAA.NERRS:marscwq:1,2014-08-08T09:30:00Z,27.8383,-97.0503,5.33,37.2,1111122 
NERRS,ioos:station:NOAA.NERRS:marscwq:1,2014-08-08T11:30:00Z,27.8383,-97.0503,5.32,37.0,1111122 
NERRS,ioos:station:NOAA.NERRS:marscwq:1,2014-08-08T12:30:00Z,27.8383,-97.0503,5.31,37.0,1111122 
NERRS,ioos:station:NOAA.NERRS:marscwq:1,2014-08-08T13:30:00Z,27.8383,-97.0503,5.31,37.0,1111122 
NERRS,ioos:station:NOAA.NERRS:marscwq:1,2014-08-08T14:30:00Z,27.8383,-97.0503,5.33,37.0,1111122 
NERRS,ioos:station:NOAA.NERRS:marscwq:1,2014-08-08T16:30:00Z,27.8383,-97.0503,5.29,37.0,1111122 
NERRS,ioos:station:NOAA.NERRS:marscwq:1,2014-08-08T17:30:00Z,27.8383,-97.0503,5.25,37.0,1111122 
NERRS,ioos:station:NOAA.NERRS:marscwq:1,2014-08-08T19:00:00Z,27.8383,-97.0503,5.2,37.0,1111122 
NERRS,ioos:station:NOAA.NERRS:marscwq:1,2014-08-08T21:30:00Z,27.8383,-97.0503,4.94,37.0,1111122 
NERRS,ioos:station:NOAA.NERRS:marscwq:1,2014-08-08T22:30:00Z,27.8383,-97.0503,4.86,37.0,1111122 
NERRS,ioos:station:NOAA.NERRS:marscwq:1,2014-08-08T23:30:00Z,27.8383,-97.0503,4.77,37.4,1111122 
NERRS,ioos:station:NOAA.NERRS:marscwq:1,2014-08-09T01:30:00Z,27.8383,-97.0503,4.74,37.9,1111122 
NERRS,ioos:station:NOAA.NERRS:marscwq:1,2014-08-09T05:30:00Z,27.8383,-97.0503,5.17,38.7,1111122 
NERRS,ioos:station:NOAA.NERRS:marscwq:1,2014-08-09T19:00:00Z,27.8383,-97.0503,5.25,37.3,1111122 
NERRS,ioos:station:NOAA.NERRS:marscwq:1,2014-08-09T19:30:00Z,27.8383,-97.0503,5.22,37.3,1111122 
NERRS,ioos:station:NOAA.NERRS:marscwq:1,2014-08-09T21:30:00Z,27.8383,-97.0503,5.03,37.3,1111122 
NERRS,ioos:station:NOAA.NERRS:marscwq:1,2014-08-09T22:30:00Z,27.8383,-97.0503,4.93,37.1,1111122 
NERRS,ioos:station:NOAA.NERRS:marscwq:1,2014-08-09T23:30:00Z,27.8383,-97.0503,4.87,37.4,1111122 
NERRS,ioos:station:NOAA.NERRS:marscwq:1,2014-08-10T00:30:00Z,27.8383,-97.0503,4.78,37.5,1111122 
NERRS,ioos:station:NOAA.NERRS:marscwq:1,2014-08-10T01:30:00Z,27.8383,-97.0503,4.8,37.6,1111122 
NERRS,ioos:station:NOAA.NERRS:marscwq:1,2014-08-10T02:30:00Z,27.8383,-97.0503,4.81,38.0,1111122 
NERRS,ioos:station:NOAA.NERRS:marscwq:1,2014-08-10T03:30:00Z,27.8383,-97.0503,4.88,38.4,1111122 
NERRS,ioos:station:NOAA.NERRS:marscwq:1,2014-08-10T04:30:00Z,27.8383,-97.0503,4.96,38.4,1111122 
NERRS,ioos:station:NOAA.NERRS:marscwq:1,2014-08-10T07:00:00Z,27.8383,-97.0503,5.21,39.2,1111122 
NERRS,ioos:station:NOAA.NERRS:marscwq:1,2014-08-10T07:30:00Z,27.8383,-97.0503,5.25,38.8,1111122 
NERRS,ioos:station:NOAA.NERRS:marscwq:1,2014-08-10T08:30:00Z,27.8383,-97.0503,5.29,38.2,1111122 
NERRS,ioos:station:NOAA.NERRS:marscwq:1,2014-08-10T09:30:00Z,27.8383,-97.0503,5.27,37.5,1111122 
NERRS,ioos:station:NOAA.NERRS:marscwq:1,2014-08-10T11:30:00Z,27.8383,-97.0503,5.29,37.6,1111122 
NERRS,ioos:station:NOAA.NERRS:marscwq:1,2014-08-10T12:30:00Z,27.8383,-97.0503,5.29,37.3,1111122 
NERRS,ioos:station:NOAA.NERRS:marscwq:1,2014-08-10T13:30:00Z,27.8383,-97.0503,5.26,37.0,1111122 
NERRS,ioos:station:NOAA.NERRS:marscwq:1,2014-08-10T15:30:00Z,27.8383,-97.0503,5.3,37.4,1111122 
NERRS,ioos:station:NOAA.NERRS:marscwq:1,2014-08-10T17:30:00Z,27.8383,-97.0503,5.32,37.4,1111122 
NERRS,ioos:station:NOAA.NERRS:marscwq:1,2014-08-10T21:00:00Z,27.8383,-97.0503,5.19,37.4,1111122 
NERRS,ioos:station:NOAA.NERRS:marscwq:1,2014-08-10T21:30:00Z,27.8383,-97.0503,5.17,37.4,1111122 
NERRS,ioos:station:NOAA.NERRS:marscwq:1,2014-08-10T22:30:00Z,27.8383,-97.0503,5.11,37.4,1111122 
NERRS,ioos:station:NOAA.NERRS:marscwq:1,2014-08-11T00:30:00Z,27.8383,-97.0503,4.89,37.5,1111122 
NERRS,ioos:station:NOAA.NERRS:marscwq:1,2014-08-11T01:30:00Z,27.8383,-97.0503,4.84,37.5,1111122 
NERRS,ioos:station:NOAA.NERRS:marscwq:1,2014-08-11T02:30:00Z,27.8383,-97.0503,4.84,37.8,1111122 
NERRS,ioos:station:NOAA.NERRS:marscwq:1,2014-08-11T04:30:00Z,27.8383,-97.0503,4.88,38.3,1111122 
NERRS,ioos:station:NOAA.NERRS:marscwq:1,2014-08-11T05:30:00Z,27.8383,-97.0503,4.97,38.3,1111122 
NERRS,ioos:station:NOAA.NERRS:marscwq:1,2014-08-11T06:30:00Z,27.8383,-97.0503,5.11,38.3,1111122 
NERRS,ioos:station:NOAA.NERRS:marscwq:1,2014-08-11T08:30:00Z,27.8383,-97.0503,5.27,38.5,1111122 
NERRS,ioos:station:NOAA.NERRS:marscwq:1,2014-08-11T10:30:00Z,27.8383,-97.0503,5.29,37.6,1111122 
NERRS,ioos:station:NOAA.NERRS:marscwq:1,2014-08-11T11:30:00Z,27.8383,-97.0503,5.28,37.6,1111122 
NERRS,ioos:station:NOAA.NERRS:marscwq:1,2014-08-11T12:30:00Z,27.8383,-97.0503,5.26,37.6,1111122 
NERRS,ioos:station:NOAA.NERRS:marscwq:1,2014-08-11T13:30:00Z,27.8383,-97.0503,5.29,37.5,1111122 
NERRS,ioos:station:NOAA.NERRS:marscwq:1,2014-08-11T14:30:00Z,27.8383,-97.0503,5.26,37.5,1111122 
NERRS,ioos:station:NOAA.NERRS:marscwq:1,2014-08-11T15:30:00Z,27.8383,-97.0503,5.24,37.5,1111122 
NERRS,ioos:station:NOAA.NERRS:marscwq:1,2014-08-11T16:30:00Z,27.8383,-97.0503,5.25,37.4,1111122 
NERRS,ioos:station:NOAA.NERRS:marscwq:1,2014-08-11T18:30:00Z,27.8383,-97.0503,5.3,37.4,1111122 
NERRS,ioos:station:NOAA.NERRS:marscwq:1,2014-08-11T19:30:00Z,27.8383,-97.0503,5.3,37.4,1111122 
NERRS,ioos:station:NOAA.NERRS:marscwq:1,2014-08-15T02:30:00Z,27.8383,-97.0503,0.69,37.5,1111122 
NERRS,ioos:station:NOAA.NERRS:marscwq:1,2014-08-15T03:30:00Z,27.8383,-97.0503,0.69,37.5,1111122 
NERRS,ioos:station:NOAA.NERRS:marscwq:1,2014-08-15T04:30:00Z,27.8383,-97.0503,0.69,37.5,1111122 
NERRS,ioos:station:NOAA.NERRS:marscwq:1,2014-08-15T05:30:00Z,27.8383,-97.0503,0.66,37.5,1111122 
NERRS,ioos:station:NOAA.NERRS:marscwq:1,2014-08-15T08:30:00Z,27.8383,-97.0503,0.69,37.4,1111122 
NERRS,ioos:station:NOAA.NERRS:marscwq:1,2014-08-15T09:30:00Z,27.8383,-97.0503,0.73,37.4,1111122 
NERRS,ioos:station:NOAA.NERRS:marscwq:1,2014-08-15T14:30:00Z,27.8383,-97.0503,0.7,37.4,1111122 
NERRS,ioos:station:NOAA.NERRS:marscwq:1,2014-08-15T15:30:00Z,27.8383,-97.0503,0.66,37.4,1111122 
NERRS,ioos:station:NOAA.NERRS:marscwq:1,2014-08-15T16:30:00Z,27.8383,-97.0503,0.57,37.4,1111122 
NERRS,ioos:station:NOAA.NERRS:marscwq:1,2014-08-15T17:30:00Z,27.8383,-97.0503,0.55,37.4,1111122 
NERRS,ioos:station:NOAA.NERRS:marscwq:1,2014-08-15T19:30:00Z,27.8383,-97.0503,0.49,37.5,1111122 
NERRS,ioos:station:NOAA.NERRS:marscwq:1,2014-08-15T20:30:00Z,27.8383,-97.0503,0.54,37.6,1111122 
NERRS,ioos:station:NOAA.NERRS:marscwq:1,2014-08-16T06:30:00Z,27.8383,-97.0503,0.74,37.3,1111122 
NERRS,ioos:station:NOAA.NERRS:marscwq:1,2014-08-16T10:30:00Z,27.8383,-97.0503,0.74,37.3,1111122 
NERRS,ioos:station:NOAA.NERRS:marscwq:1,2014-08-16T13:30:00Z,27.8383,-97.0503,0.73,37.3,1111122 
NERRS,ioos:station:NOAA.NERRS:marscwq:1,2014-08-16T17:30:00Z,27.8383,-97.0503,0.52,37.3,1111122 
NERRS,ioos:station:NOAA.NERRS:marscwq:1,2014-08-16T18:30:00Z,27.8383,-97.0503,0.53,37.5,1111122 
NERRS,ioos:station:NOAA.NERRS:marscwq:1,2014-08-16T19:30:00Z,27.8383,-97.0503,0.48,37.5,1111122 
NERRS,ioos:station:NOAA.NERRS:marscwq:1,2014-08-16T20:30:00Z,27.8383,-97.0503,0.5,38.0,1111122 
NERRS,ioos:station:NOAA.NERRS:marscwq:1,2014-08-16T21:30:00Z,27.8383,-97.0503,0.51,38.1,1111122 
NERRS,ioos:station:NOAA.NERRS:marscwq:1,2014-08-16T22:30:00Z,27.8383,-97.0503,0.56,38.2,1111122 
NERRS,ioos:station:NOAA.NERRS:marscwq:1,2014-08-17T00:30:00Z,27.8383,-97.0503,0.7,38.3,1111122 
NERRS,ioos:station:NOAA.NERRS:marscwq:1,2014-08-17T07:00:00Z,27.8383,-97.0503,0.71,37.0,1111122 
NERRS,ioos:station:NOAA.NERRS:marscwq:1,2014-08-17T08:30:00Z,27.8383,-97.0503,0.7,37.0,1111122 
NERRS,ioos:station:NOAA.NERRS:marscwq:1,2014-08-17T10:30:00Z,27.8383,-97.0503,0.69,37.0,1111122 
NERRS,ioos:station:NOAA.NERRS:marscwq:1,2014-08-17T11:30:00Z,27.8383,-97.0503,0.71,37.0,1111122 
NERRS,ioos:station:NOAA.NERRS:marscwq:1,2014-08-17T12:30:00Z,27.8383,-97.0503,0.71,37.0,1111122 
NERRS,ioos:station:NOAA.NERRS:marscwq:1,2014-08-17T14:30:00Z,27.8383,-97.0503,0.66,37.0,1111122 
NERRS,ioos:station:NOAA.NERRS:marscwq:1,2014-08-17T19:30:00Z,27.8383,-97.0503,0.39,38.1,1111122 
NERRS,ioos:station:NOAA.NERRS:marscwq:1,2014-08-17T20:30:00Z,27.8383,-97.0503,0.4,38.2,1111122 
NERRS,ioos:station:NOAA.NERRS:marscwq:1,2014-08-18T00:30:00Z,27.8383,-97.0503,0.52,38.8,1111122 
NERRS,ioos:station:NOAA.NERRS:marscwq:1,2014-08-18T01:30:00Z,27.8383,-97.0503,0.63,38.7,1111122 
NERRS,ioos:station:NOAA.NERRS:marscwq:1,2014-08-18T02:30:00Z,27.8383,-97.0503,0.65,38.8,1111122 
NERRS,ioos:station:NOAA.NERRS:marscwq:1,2014-08-18T03:30:00Z,27.8383,-97.0503,0.72,37.8,1111122 
NERRS,ioos:station:NOAA.NERRS:marscwq:1,2014-08-18T04:30:00Z,27.8383,-97.0503,0.78,37.4,1111122 
NERRS,ioos:station:NOAA.NERRS:marscwq:1,2014-08-18T07:30:00Z,27.8383,-97.0503,0.72,37.1,1111122 
NERRS,ioos:station:NOAA.NERRS:marscwq:1,2014-08-18T10:30:00Z,27.8383,-97.0503,0.7,37.1,1111122 
NERRS,ioos:station:NOAA.NERRS:marscwq:1,2014-08-18T11:30:00Z,27.8383,-97.0503,0.75,37.1,1111122 
NERRS,ioos:station:NOAA.NERRS:marscwq:1,2014-08-18T13:30:00Z,27.8383,-97.0503,0.75,37.0,1111122 
NERRS,ioos:station:NOAA.NERRS:marscwq:1,2014-08-18T15:30:00Z,27.8383,-97.0503,0.71,36.9,1111122 
NERRS,ioos:station:NOAA.NERRS:marscwq:1,2014-08-18T16:30:00Z,27.8383,-97.0503,0.65,36.9,1111122 
NERRS,ioos:station:NOAA.NERRS:marscwq:1,2014-08-18T17:30:00Z,27.8383,-97.0503,0.6,37.0,1111122 
NERRS,ioos:station:NOAA.NERRS:marscwq:1,2014-08-18T18:30:00Z,27.8383,-97.0503,0.5,37.0,1111122 
NERRS,ioos:station:NOAA.NERRS:marscwq:1,2014-08-18T19:30:00Z,27.8383,-97.0503,0.46,37.0,1111122 
NERRS,ioos:station:NOAA.NERRS:marscwq:1,2014-08-18T20:30:00Z,27.8383,-97.0503,0.43,37.1,1111122 
NERRS,ioos:station:NOAA.NERRS:marscwq:1,2014-08-18T22:30:00Z,27.8383,-97.0503,0.35,37.9,1111122 
NERRS,ioos:station:NOAA.NERRS:marscwq:1,2014-08-19T03:30:00Z,27.8383,-97.0503,0.66,38.3,1111122 
NERRS,ioos:station:NOAA.NERRS:marscwq:1,2014-08-19T04:30:00Z,27.8383,-97.0503,0.72,38.0,1111122 
NERRS,ioos:station:NOAA.NERRS:marscwq:1,2014-08-19T07:00:00Z,27.8383,-97.0503,0.74,37.2,1111122 
NERRS,ioos:station:NOAA.NERRS:marscwq:1,2014-08-19T08:30:00Z,27.8383,-97.0503,0.71,37.0,1111122 
NERRS,ioos:station:NOAA.NERRS:marscwq:1,2014-08-19T11:30:00Z,27.8383,-97.0503,0.72,36.7,1111122 
NERRS,ioos:station:NOAA.NERRS:marscwq:1,2014-08-19T13:30:00Z,27.8383,-97.0503,0.64,36.6,1111122 
NERRS,ioos:station:NOAA.NERRS:marscwq:1,2014-08-19T14:30:00Z,27.8383,-97.0503,0.68,36.6,1111122 
NERRS,ioos:station:NOAA.NERRS:marscwq:1,2014-08-19T16:30:00Z,27.8383,-97.0503,0.71,36.6,1111122 
NERRS,ioos:station:NOAA.NERRS:marscwq:1,2014-08-19T17:30:00Z,27.8383,-97.0503,0.6,36.6,1111122 
NERRS,ioos:station:NOAA.NERRS:marscwq:1,2014-08-19T19:30:00Z,27.8383,-97.0503,0.45,36.6,1111122 
NERRS,ioos:station:NOAA.NERRS:marscwq:1,2014-08-19T22:30:00Z,27.8383,-97.0503,0.32,37.5,1111122 
NERRS,ioos:station:NOAA.NERRS:marscwq:1,2014-08-19T23:30:00Z,27.8383,-97.0503,0.34,37.7,1111122 